Terminal Aerodrome Forecast
Issued by NWS

Home | Current Version | Previous Version | Text Only | Print | Product List | Glossary On
Versions: 1 2 3 4 5 6 7 8 9 10 11 12 13 14 15 16 17 18 19 20 21
000
FTUS43 KGRR 301100 RRA
TAFMKG
TAF
KMKG 301147Z 3012/0112 36011KT P6SM OVC010
      TEMPO 3012/3014 OVC008
     FM301800 35009KT P6SM BKN020
     FM010100 10005KT P6SM BKN025=

USA.gov is the U.S. government's official web portal to all federal, state and local government web resources and services.